Location: Arborea
(39.7744°N, 8.5819°E)
Time: 00:18:02
(UTC+00:00)

Cosmos 2123 Rocket - Pass Details

Date: 24 October 2021
Orbit: 961 x 992 km, 82.9° (Epoch: 06 December)

Event Time Altitude Azimuth Distance (km) Brightness Sun altitude
Rises 17:55:07 0° 349° (N) 3,714 7.2 -16.3°
Reaches altitude 10° 17:57:41 10° 347° (NNW) 2,759 6.5 -16.8°
Maximum altitude 18:03:55 64° 267° (W) 1,083 4.5 -18.0°
Drops below altitude 10° 18:10:05 10° 187° (S) 2,724 6.4 -19.2°
Sets 18:12:36 0° 184° (S) 3,663 7.1 -19.7°
